Regional Weather Roundup
Issued by NWS

Home | Current Version | Previous Version | Text Only | Print | Product List | Glossary Off
Versions: 1 2 3 4 5 6 7 8 9 10 11 12 13 14 15 16 17 18 19 20 21 22 23 24 25 26 27 28 29 30 31 32 33 34 35 36 37 38 39 40 41 42 43 44 45 46 47 48 49 50

000
ASUS43 KLOT 300803
RWRIL

ILLINOIS REGIONAL WEATHER ROUNDUP
NATIONAL WEATHER SERVICE CHICAGO/ROMEOVILLE IL
300 AM CDT SAT APR 30 2016

NOTE: "FAIR" INDICATES FEW OR NO CLOUDS BELOW 12,000 FEET WITH NO
SIGNIFICANT WEATHER AND/OR OBSTRUCTIONS TO VISIBILITY.

* THESE STATIONS ARE NOT UNDER NWS QUALITY CONTROL. THEY ALSO MAY NOT
  REPORT WEATHER SUCH AS PRECIPITATION OR FOG.

ILZ001-002-007-009-015-016-024-300900-
NORTHWEST ILLINOIS

CITY           SKY/WX    TMP DP  RH WIND       PRES   REMARKS
MOLINE         CLOUDY    47  40  76 E15       29.99F
STERLING*      CLOUDY    45  41  87 E17       30.02F
$$

ILZ003-004-008-010-011-017-018-300900-
NORTH CENTRAL ILLINOIS

CITY           SKY/WX    TMP DP  RH WIND       PRES   REMARKS
ROCKFORD       CLOUDY    44  38  79 E10       30.08F
FREEPORT*      CLOUDY    42  39  90 NE9       30.08S FOG
DE KALB*       CLOUDY    42  38  86 NE9       30.05F
$$

ILZ005-006-012>014-019>023-300900-
NORTHEAST ILLINOIS

CITY           SKY/WX    TMP DP  RH WIND       PRES   REMARKS
CHICAGO-OHARE  CLOUDY    43  38  82 NE8       30.07S
CHICAGO-MIDWAY CLOUDY    45  39  79 NE7       30.06S
AURORA         CLOUDY    44  38  79 NE9       30.05F
LANSING*       PTCLDY    42  40  93 NE3       30.05F FOG
WAUKEGAN       CLOUDY    43  38  82 NE7       30.08F
DUPAGE AIRPORT MOCLDY    43  37  79 NE8       30.06S
WHEELING       CLOUDY    44  39  82 NE6       30.09F
NORTHERLY ISL    N/A     43  40  89 NE7         N/A
NORTHERLY ISL    N/A     43  40  89 NE7         N/A
$$

LMZ740>746-300900-
SOUTHERN LAKE MICHIGAN

STATION/POSITION SKY/WX   TEMP    WIND        PRES    VSBY  WAVE
                          AIR SEA DIR/SP/G                  HT/PER
                          (F)     (DEG/KT/KT) (MB)    (MI)  (FT/S)
SOUTHERN BUOY              42 40   70/  8/  8 1020.0          1
HARRISON CRIB              43      30/  8/  9   N/A
BURNHAM HARBOR             44      20/  5/ 10   N/A
CALUMET HARBOR             43      20/  6/  8 1017.5F
BURNS HARBOR               47      70/ 12/ 13 1018.3F
MICHIGAN CITY              46      40/ 10/ 11   N/A
ST. JOSEPH                 49 48                N/A           2/ 4
$$

ILZ025>027-034>036-040-047-049-050-058-095>099-300900-
WEST-CENTRAL ILLINOIS

CITY           SKY/WX    TMP DP  RH WIND       PRES   REMARKS
QUINCY         CLOUDY    50  47  89 E16G22    29.89R FOG
MACOMB*        DRIZZLE   48  46  93 E14       29.97S
$$

ILZ028>032-037-038-041>044-048-051>054-059>061-300900-
CENTRAL ILLINOIS

CITY           SKY/WX    TMP DP  RH WIND       PRES   REMARKS
BLOOMINGTON    CLOUDY    46  46 100 E15       30.00S FOG
DECATUR        CLOUDY    51  46  83 E12       29.97R
PEORIA         CLOUDY    47  41  80 E13       29.99F
SPRINGFIELD    CLOUDY    52  47  83 E14       29.94F HAZE
TAYLORVILLE    NOT AVBL
$$

ILZ033-039-045-046-055>057-062-063-300900-
EAST-CENTRAL ILLINOIS

CITY           SKY/WX    TMP DP  RH WIND       PRES   REMARKS
CHAMPAIGN      CLOUDY    50  47  89 E14       29.97R
MATTOON        CLOUDY    55  49  80 E6        29.95R
$$

ILZ079-100>102-300900-
SOUTHWEST ILLINOIS

CITY           SKY/WX    TMP DP  RH WIND       PRES   REMARKS
ALTON          DRIZZLE   56  55  95 E5        29.90S
BELLEVILLE     CLOUDY    58  58 100 NE5       29.88F
CAHOKIA*       CLOUDY    59  55  87 E5        29.88F
SPARTA*        CLOUDY    59  55  86 SE7       29.89F
$$

ILZ064>066-069>071-074>076-080>082-084>086-088>090-092>094-300900-
SOUTH-CENTRAL ILLINOIS

CITY           SKY/WX    TMP DP  RH WIND       PRES   REMARKS
CARBONDALE     CLOUDY    59  54  83 SE5       29.88F
MT. VERNON     CLOUDY    59  52  77 E3        29.91F
SALEM*         CLOUDY    59  56  88 CALM      29.91R
$$

ILZ067-068-072-073-078-083-087-091-300900-
SOUTHEAST ILLINOIS

CITY           SKY/WX    TMP DP  RH WIND       PRES   REMARKS
LAWRENCEVILLE  LGT RAIN  59  54  83 E12       29.93S
FLORA*         CLOUDY    60  56  88 E6        29.91F
HARRISBURG*    CLOUDY    60  57  88 E5        29.90F
ROBINSON*      CLOUDY    58  52  81 E7        29.95S
$$

ABBREVIATIONS USED IN REMARKS
   TC - TEMPERATURE IN CELSIUS
  WCI - WIND CHILL INDEX
   HX - HEAT INDEX
  VSB - VISIBILITY
$$





USA.gov is the U.S. government's official web portal to all federal, state and local government web resources and services.